• In Hungary
  • List of Countries
  • For 7 days
  • Water Temperature
  • Satellite Maps
  • Weather Map
  • News
  • Weather Widgets
  • user-avatar
    Login

    Hourly Weather Sergokala

    Today, 22 September, Saturday

    Time Temperature Precipitation Wind Pressure Humidity
    00:00 +18°C° 0 mm 1 mps 719 mmHg 73%
    01:00 +18°C° 0 mm 1 mps 719 mmHg 72%
    02:00 +18°C° 0 mm 1 mps 719 mmHg 71%
    03:00 +18°C° 0 mm 1 mps 719 mmHg 71%
    04:00 +18°C° 0 mm 1 mps 719 mmHg 70%
    05:00 +18°C° 0 mm 1 mps 719 mmHg 69%
    06:00 +18°C° 0 mm 1 mps 719 mmHg 68%
    07:00 +20°C° 0 mm 1 mps 719 mmHg 61%
    08:00 +21°C° 0 mm 2 mps 720 mmHg 55%
    09:00 +25°C° 0 mm 2 mps 720 mmHg 47%
    10:00 +25°C° 0 mm 2 mps 720 mmHg 46%
    11:00 +26°C° 0 mm 3 mps 720 mmHg 45%
    12:00 +27°C° 0 mm 4 mps 720 mmHg 44%
    13:00 +26°C° 0.1 mm 4 mps 719 mmHg 47%
    14:00 +26°C° 0.1 mm 4 mps 719 mmHg 49%
    15:00 +26°C° 0 mm 4 mps 719 mmHg 52%
    16:00 +23°C° 0.2 mm 4 mps 719 mmHg 60%
    17:00 +21°C° 0.2 mm 3 mps 719 mmHg 67%
    18:00 +19°C° 0.2 mm 2 mps 719 mmHg 75%
    19:00 +19°C° 0.1 mm 2 mps 719 mmHg 76%
    20:00 +19°C° 0.1 mm 2 mps 719 mmHg 78%
    21:00 +18°C° 0.1 mm 2 mps 719 mmHg 79%
    22:00 +18°C° 0 mm 2 mps 718 mmHg 79%
    23:00 +18°C° 0 mm 2 mps 718 mmHg 80%

    Tomorrow, 23 September, Sunday

    Time Temperature Precipitation Wind Pressure Humidity
    00:00 +18°C° 0 mm 2 mps 718 mmHg 80%
    01:00 +18°C° 0 mm 2 mps 718 mmHg 79%
    02:00 +18°C° 0 mm 2 mps 718 mmHg 79%
    03:00 +18°C° 0 mm 2 mps 718 mmHg 78%
    04:00 +18°C° 0 mm 2 mps 718 mmHg 78%
    05:00 +18°C° 0 mm 2 mps 718 mmHg 77%
    06:00 +18°C° 0 mm 2 mps 718 mmHg 77%
    07:00 +19°C° 0 mm 2 mps 718 mmHg 72%
    08:00 +21°C° 0 mm 3 mps 718 mmHg 68%
    09:00 +24°C° 0 mm 3 mps 718 mmHg 63%
    10:00 +24°C° 0.1 mm 3 mps 718 mmHg 62%
    11:00 +25°C° 0.1 mm 4 mps 718 mmHg 61%
    12:00 +26°C° 0.1 mm 4 mps 718 mmHg 60%
    13:00 +25°C° 0.3 mm 4 mps 718 mmHg 64%
    14:00 +25°C° 0.3 mm 4 mps 718 mmHg 67%
    15:00 +23°C° 0.3 mm 4 mps 718 mmHg 71%
    16:00 +22°C° 0.7 mm 3 mps 717 mmHg 76%
    17:00 +21°C° 0.7 mm 3 mps 717 mmHg 81%
    18:00 +20°C° 0.7 mm 2 mps 717 mmHg 87%
    19:00 +20°C° 0.3 mm 2 mps 718 mmHg 86%
    20:00 +20°C° 0.3 mm 2 mps 718 mmHg 85%
    21:00 +20°C° 0.3 mm 2 mps 718 mmHg 84%
    22:00 +19°C° 0.3 mm 2 mps 718 mmHg 83%
    23:00 +19°C° 0.3 mm 2 mps 718 mmHg 81%

    Day after tomorrow, 24 September, Monday

    Time Temperature Precipitation Wind Pressure Humidity
    00:00 +19°C° 0.3 mm 2 mps 718 mmHg 80%
    01:00 +19°C° 0.2 mm 2 mps 718 mmHg 79%
    02:00 +18°C° 0.2 mm 2 mps 718 mmHg 78%
    03:00 +18°C° 0.2 mm 2 mps 718 mmHg 76%
    04:00 +18°C° 0 mm 2 mps 718 mmHg 75%
    05:00 +18°C° 0 mm 2 mps 718 mmHg 74%
    06:00 +18°C° 0 mm 2 mps 718 mmHg 73%
    07:00 +20°C° 0 mm 2 mps 719 mmHg 65%
    08:00 +23°C° 0 mm 2 mps 719 mmHg 56%
    09:00 +25°C° 0 mm 2 mps 720 mmHg 48%
    10:00 +25°C° 0 mm 2 mps 720 mmHg 46%
    11:00 +26°C° 0 mm 3 mps 720 mmHg 45%
    12:00 +27°C° 0 mm 3 mps 720 mmHg 43%
    13:00 +26°C° 0 mm 3 mps 719 mmHg 48%
    14:00 +26°C° 0 mm 3 mps 719 mmHg 52%
    15:00 +25°C° 0 mm 3 mps 719 mmHg 57%
    16:00 +24°C° 0 mm 2 mps 719 mmHg 63%
    17:00 +21°C° 0 mm 2 mps 718 mmHg 69%
    18:00 +20°C° 0 mm 2 mps 718 mmHg 76%
    19:00 +20°C° 0 mm 2 mps 718 mmHg 76%
    20:00 +19°C° 0 mm 2 mps 718 mmHg 76%
    21:00 +19°C° 0 mm 2 mps 718 mmHg 75%
    22:00 +19°C° 0 mm 2 mps 718 mmHg 73%
    23:00 +19°C° 0 mm 2 mps 718 mmHg 71%

    25 September, Tuesday

    Time Temperature Precipitation Wind Pressure Humidity
    00:00 +19°C° 0 mm 3 mps 717 mmHg 69%
    01:00 +18°C° 0 mm 3 mps 717 mmHg 66%
    02:00 +18°C° 0 mm 3 mps 717 mmHg 64%
    03:00 +18°C° 0 mm 3 mps 716 mmHg 62%
    04:00 +18°C° 0 mm 3 mps 716 mmHg 60%
    05:00 +18°C° 0 mm 4 mps 716 mmHg 59%
    06:00 +18°C° 0 mm 4 mps 716 mmHg 57%
    07:00 +21°C° 0 mm 4 mps 716 mmHg 51%
    08:00 +25°C° 0 mm 4 mps 716 mmHg 45%
    09:00 +28°C° 0 mm 4 mps 716 mmHg 39%
    10:00 +28°C° 0 mm 4 mps 715 mmHg 38%
    11:00 +29°C° 0 mm 4 mps 715 mmHg 37%
    12:00 +30°C° 0 mm 4 mps 715 mmHg 37%
    13:00 +30°C° 0 mm 4 mps 714 mmHg 40%
    14:00 +30°C° 0 mm 4 mps 714 mmHg 43%
    15:00 +29°C° 0 mm 3 mps 714 mmHg 46%
    16:00 +27°C° 0 mm 3 mps 714 mmHg 56%
    17:00 +25°C° 0 mm 2 mps 714 mmHg 66%
    18:00 +23°C° 0 mm 2 mps 714 mmHg 76%
    19:00 +21°C° 0 mm 2 mps 714 mmHg 76%
    20:00 +21°C° 0 mm 2 mps 714 mmHg 75%
    21:00 +21°C° 0 mm 2 mps 715 mmHg 74%
    22:00 +21°C° 0 mm 2 mps 715 mmHg 73%
    23:00 +21°C° 0 mm 2 mps 715 mmHg 72%

    26 September, Wednesday

    Time Temperature Precipitation Wind Pressure Humidity
    00:00 +20°C° 0 mm 2 mps 715 mmHg 71%
    01:00 +20°C° 0 mm 2 mps 715 mmHg 72%
    02:00 +20°C° 0 mm 2 mps 715 mmHg 72%
    03:00 +19°C° 0 mm 3 mps 715 mmHg 72%
    04:00 +19°C° 0 mm 4 mps 716 mmHg 76%
    05:00 +17°C° 0 mm 6 mps 716 mmHg 80%
    06:00 +16°C° 0 mm 7 mps 716 mmHg 83%
    07:00 +17°C° 0 mm 7 mps 717 mmHg 80%
    08:00 +18°C° 0 mm 8 mps 718 mmHg 76%
    09:00 +20°C° 0 mm 8 mps 718 mmHg 73%
    10:00 +20°C° 0 mm 8 mps 718 mmHg 73%
    11:00 +18°C° 0 mm 8 mps 719 mmHg 74%
    12:00 +18°C° 0 mm 8 mps 719 mmHg 75%
    13:00 +17°C° 0 mm 7 mps 719 mmHg 77%
    14:00 +16°C° 0 mm 7 mps 719 mmHg 79%
    15:00 +16°C° 0 mm 7 mps 719 mmHg 82%
    16:00 +15°C° 0 mm 6 mps 720 mmHg 83%
    17:00 +14°C° 0 mm 6 mps 720 mmHg 85%
    18:00 +14°C° 0 mm 5 mps 721 mmHg 87%
    19:00 +14°C° 0 mm 5 mps 721 mmHg 88%
    20:00 +13°C° 0 mm 5 mps 722 mmHg 88%
    21:00 +13°C° 0 mm 4 mps 722 mmHg 88%
    22:00 +13°C° 0 mm 4 mps 722 mmHg 89%
    23:00 +13°C° 0 mm 4 mps 722 mmHg 90%

    27 September, Thursday

    Time Temperature Precipitation Wind Pressure Humidity
    00:00 +12°C° 0 mm 4 mps 722 mmHg 90%
    01:00 +12°C° 0 mm 4 mps 722 mmHg 90%
    02:00 +12°C° 0 mm 4 mps 722 mmHg 90%
    03:00 +12°C° 0 mm 4 mps 722 mmHg 90%
    04:00 +12°C° 0 mm 3 mps 722 mmHg 90%
    05:00 +11°C° 0 mm 3 mps 723 mmHg 90%
    06:00 +11°C° 0 mm 3 mps 723 mmHg 90%
    07:00 +12°C° 0 mm 3 mps 723 mmHg 83%
    08:00 +14°C° 0 mm 3 mps 723 mmHg 75%
    09:00 +16°C° 0 mm 3 mps 723 mmHg 68%
    10:00 +17°C° 0 mm 3 mps 723 mmHg 68%
    11:00 +17°C° 0 mm 3 mps 723 mmHg 68%
    12:00 +18°C° 0 mm 3 mps 723 mmHg 67%
    13:00 +18°C° 0 mm 3 mps 723 mmHg 70%
    14:00 +17°C° 0 mm 3 mps 723 mmHg 72%
    15:00 +17°C° 0 mm 3 mps 722 mmHg 75%
    16:00 +16°C° 0 mm 3 mps 722 mmHg 79%
    17:00 +15°C° 0 mm 2 mps 722 mmHg 83%
    18:00 +15°C° 0 mm 2 mps 722 mmHg 87%
    19:00 +14°C° 0 mm 2 mps 722 mmHg 87%
    20:00 +14°C° 0 mm 2 mps 723 mmHg 87%
    21:00 +14°C° 0 mm 2 mps 723 mmHg 88%
    22:00 +14°C° 0 mm 2 mps 722 mmHg 86%
    23:00 +14°C° 0 mm 2 mps 722 mmHg 84%
    Show more